Satellite: CO-66
Catalog number: 32791
Epoch time:      09084.45794008
Element set:    0307
Inclination:      097.9545 deg
RA of node:       148.9921 deg
Eccentricity:    0.0015308
Arg of perigee:   306.1302 deg
Mean anomaly:     053.8498 deg
Mean motion:   14.81402948 rev/day
Decay rate:        9.1e-07 rev/day^2
Epoch rev:           04901
Checksum:              320

Satellite: RS-30
Catalog number: 32953
Epoch time:      09084.72196569
Element set:     264
Inclination:      082.5027 deg
RA of node:       308.5291 deg
Eccentricity:    0.0019612
Arg of perigee:   003.4929 deg
Mean anomaly:     356.6285 deg
Mean motion:   12.43000132 rev/day
Decay rate:        1.0e-07 rev/day^2
Epoch rev:            3802
Checksum:              277

/EX





More information about the Keps mailing list